www.pogodaiklimat.ru

Погода и климат >> Архив погоды >> Иран >> Месджеде-Солейман


ПОГОДА в Месджеде-Солеймане

  • Прогноз погоды в Месджеде-Солеймане
  • Монитор погоды в Месджеде-Солеймане

АРХИВ ПОГОДЫ в Месджеде-Солеймане

Время (UTC), дата Ветер
(напр.,м/с)
 
Видим.   Явления Облачность Т
(С)
Тd
(С)
f
(%)
Тe
(С)
Тes
(С)
Комфортность P
(гПа)
Po
(гПа)
Тmin
(С)
Tmax
(С)
R
(мм)
R24
(мм)
S
(см)
03 15.07 СЗ 1 10 км ясно +31.0 +1.3 15 +28 +30 жарко 995.6 961.2 +29.5
06 15.07 ЮВ 1 10 км ясно +40.1 -1.2 8 +36 +53 опасность
солнечного
удара
996.2 962.1
09 15.07 ЮЗ 4 10 км ясно +43.1 -0.7 7 +39 +54 опасность
солнечного
удара
995.6 961.5 666
12 15.07 З 4 10 км ясно +43.7 -2.3 6 +40 +47 очень
жарко
994.7 960.6
15 15.07 ЮЗ 3 10 км ясно +42.4 -4.7 5 +38 +38 очень
жарко
994.0 959.8 +44.3 666
18 15.07 штиль 0 10 км ясно +36.8 -0.5 9 +33 +33 жарко 994.5 960.5
21 15.07 Ю 1 10 км ясно +34.7 +1.4 12 +31 +31 жарко 993.6 959.6
00 16.07 З 1 10 км ясно +31.3 +1.4 15 +29 +29 жарко 992.1 958.1
03 16.07 С 1 10 км ясно +32.2 +3.4 16 +30 +31 жарко 993.0 958.9 +31.0 666
06 16.07 СЗ 1 10 км ясно +40.7 -0.6 8 +37 +53 опасность
солнечного
удара
993.5 959.5
09 16.07 З 3 10 км ясно +44.4 -5.5 4 +40 +58 опасность
солнечного
удара
993.3 959.4
12 16.07 З 5 10 км ясно +45.6 -6.7 4 +41 +47 опасность
перегрева
992.8 958.7
15 16.07 З 3 10 км ясно +44.6 -17.9 2 +40 +40 очень
жарко
992.3 958.3 +45.8
18 16.07 З 2 10 км 5/0
[Ac trans]
+38.9 -11.2 4 +34 +34 очень
жарко
994.1 960.2
21 16.07 З 2 10 км ясно +35.0 -2.2 9 +31 +31 жарко 993.7 959.8
00 17.07 Ю 1 10 км ясно +32.8 +0.8 13 +30 +30 жарко 993.1 959.1
03 17.07 ЮВ 2 10 км 5/0
[Ac trans]
+32.2 +2.4 15 +29 +30 жарко 994.0 960.0 +31.9
06 17.07 ЮВ 2 10 км ясно +38.1 +1.0 10 +35 +48 очень
жарко
994.8 960.8
09 17.07 ЮВ 4 10 км 5/0
[Ac trans]
+41.2 +0.6 8 +37 +48 очень
жарко
995.6 961.4
12 17.07 З 5 10 км 3/0
[Ac trans]
+42.8 -2.9 6 +39 +44 очень
жарко
995.0 960.9
15 17.07 З 4 10 км 1/0
[Ac trans]
+41.3 +0.7 8 +38 +38 очень
жарко
994.9 960.6 +43.5 666
18 17.07 Ю 1 10 км ясно +36.8 +2.8 12 +34 +34 очень
жарко
995.4 961.2
21 17.07 ЮЗ 1 10 км ясно +34.7 +2.5 13 +32 +32 жарко 995.3 961.1
00 18.07 ЮВ 1 10 км ясно +32.1 +4.4 17 +30 +30 жарко 994.6 960.4
03 18.07 СВ 1 10 км 4/0
[Ac trans]
+32.7 +4.1 17 +30 +31 жарко 994.6 960.4 +31.4 666
06 18.07 СЗ 2 10 км 3/0
[Ac trans]
+38.6 +2.8 11 +35 +47 очень
жарко
995.3 961.1
09 18.07 З 3 10 км ясно +42.2 +0.1 7 +38 +56 опасность
солнечного
удара
995.4 961.3 666
12 18.07 З 4 10 км ясно +44.0 +0.2 7 +40 +48 очень
жарко
994.5 960.5
15 18.07 З 3 10 км 4/0
[Ac trans]
+43.5 +1.2 7 +40 +40 очень
жарко
993.9 959.8 +46.1
18 18.07 В 1 10 км 4/0
[Ac trans]
+38.9 +4.8 12 +36 +36 очень
жарко
994.3 960.3
21 18.07 ЮВ 2 10 км 4/0
[Ac trans]
+36.3 +3.8 13 +33 +33 жарко 994.0 960.0
00 19.07 СВ 1 10 км 4/0
[Ac trans]
+33.2 +4.3 16 +31 +31 жарко 994.0 960.0
03 19.07 штиль 0 10 км 4/0
[Ac trans]
+32.7 +7.5 21 +31 +33 жарко 995.2 961.1 +31.9
06 19.07 Ю 2 10 км ясно +39.7 +4.9 12 +37 +51 опасность
солнечного
удара
995.3 961.4
09 19.07 ЮЗ 3 10 км ясно +43.8 +2.6 8 +40 +58 опасность
солнечного
удара
995.2 961.3
12 19.07 З 2 10 км ясно +45.3 +4.7 9 +42 +53 опасность
перегрева
994.3 960.4
15 19.07 ЮЗ 2 10 км ясно +43.4 +1.9 8 +40 +40 очень
жарко
994.4 960.3 +45.4
18 19.07 С 1 10 км ясно +38.5 +4.4 12 +35 +35 очень
жарко
995.4 961.4
21 19.07 ЮВ 1 10 км ясно +35.8 -2.3 9 +32 +32 жарко 995.4 961.4
00 20.07 ЮВ 2 10 км ясно +33.6 -1.0 11 +30 +30 жарко 994.9 960.9
03 20.07 ЮВ 2 5000 м пыль ясно +32.5 +1.3 14 +29 +31 жарко 996.3 962.2 +31.9
06 20.07 ЮВ 3 10 км ясно +39.8 +3.4 11 +37 +48 очень
жарко
997.6 963.6
09 20.07 З 3 7000 м пыль ясно +44.2 +0.9 7 +41 +58 опасность
перегрева
997.7 963.7 666
12 20.07 ЮЗ 3 8000 м пыль ясно +45.9 +1.2 7 +42 +52 опасность
перегрева
996.5 962.5
15 20.07 З 3 8000 м мгла ясно +43.0 +7.0 12 +41 +41 опасность
перегрева
996.4 962.3 +46.4 666
18 20.07 З 1 10 км ясно +37.6 +5.5 14 +35 +35 очень
жарко
997.3 963.2
21 20.07 С 1 10 км ясно +35.9 +5.0 15 +33 +33 жарко 997.2 963.2
00 21.07 ЮВ 2 10 км ясно +33.5 +6.4 19 +32 +32 жарко 996.9 962.9
03 21.07 ЮЗ 1 10 км ясно +32.2 +7.8 22 +31 +32 жарко 997.9 963.7 +31.4 666
06 21.07 ЮВ 1 10 км ясно +40.5 +5.8 12 +38 +54 опасность
солнечного
удара
998.2 964.1
09 21.07 ЮЗ 5 10 км ясно +46.0 +6.8 10 +44 +55 опасность
перегрева
996.6 962.7
12 21.07 З 7 10 км ясно +47.6 -9.1 3 +43 +46 опасность
перегрева
995.0 961.1
15 21.07 З 3 10 км ясно +45.6 +3.3 8 +42 +43 опасность
перегрева
995.3 961.3 +48.0
18 21.07 штиль 0 10 км ясно +39.3 +2.8 10 +36 +36 очень
жарко
996.2 962.3
21 21.07 Ю 1 10 км ясно +37.1 +3.4 12 +34 +34 очень
жарко
995.5 961.8
00 22.07 штиль 0 10 км ясно +34.1 +4.0 15 +31 +31 жарко 995.1 961.3

 

Местоположение метеостанции Месджеде-Солейман (Иран): широта 31.98 долгота 49.27 высота над уровнем моря 320 м.

В архиве по умолчанию представлена погода в Месджеде-Солеймане за последнюю неделю. Архивные данные за месяц целиком и за предыдущие месяцы, начиная с января 2011 года, Вы можете получить, выбрав интересующий диапазон дат из раскрывающегося списка и нажав кнопку "Ввод!".


*Определитесь, кто Вы:
робот инопланетянин человек

Внимание! Время в таблицах - всемирное. Для получения местного времени необходимо прибавить поправку, которая равна 3.5 ч.

Смотрите также архив погоды в соседних городах и на ближайших метеорологических станциях:

Погода в Сафиабаде (Иран) (86 км)
Погода в Ахвазе (Иран) (92 км)
Погода в Омидийе (Иран) (140 км)
Погода в Шехре-Корде (Иран) (153 км)
Погода в Элигудерзе (Иран) (163 км)
Погода в Хорремабаде (Иран) (187 км)
Погода в Амаре (Ирак) (199 км)
Погода в Абадане (Иран) (204 км)
Погода в Басре (Ирак) (211 км)
Погода в Басре аэропорт (Ирак) (216 км)

Пояснения к столбцам:

Ветер - указаны скорость ветра в м/с - средняя за 10 мин, порывы в срок и между сроками (в фигурных скобках) и направление, откуда дует ветер: С - северный, СВ - северо-восточный, В - восточный, ЮВ - юго-восточный, Ю - южный, ЮЗ - юго-западный, З - западный, СЗ - северо-западный.
Видимость - горизонтальная дальность видимости в метрах или километрах. При видимости от 1 до 10 км при отсутствии осадков обычно наблюдается дымка, при ухудшении видимости до 1 км и менее - туман. В сухую погоду видимость может ухудшаться дымом, пылью или мглою.
Явления - указаны атмосферные явления, наблюдавшиеся в срок или в последний час перед сроком; фигурными скобками обозначены явления, наблюдавшиеся между сроками (за 1-3 часа до срока); квадратными скобками обозначены град или гололедные отложения с указанием их диаметра в мм.
Облачность - указаны через наклонную черту общая и нижняя облачность в баллах и высота нижней границы облаков в метрах; квадратными скобками обозначены формы облаков: Ci - перистые, Cs - перисто-слоистые, Cc - перисто-кучевые, Ac - высококучевые, As - высокослоистые, Sc - слоисто-кучевые, Ns - слоисто-дождевые, Cu - кучевые, Cb - кучево-дождевые. Подробнее классификацию облаков см. в Атласе облаков (PDF).
T - Температура воздуха - температура, измеренная на высоте 2 м над землей.
Td - Температура точки росы - температура, при понижении до которой содержащийся в воздухе водяной пар достигнет насыщения.
f - Относительная влажность воздуха - влажноcть воздуха, измеренная на высоте 2 м над землей.
Te - Эффективная температура - температура, которую ощущает одетый по сезону человек в тени. Характеристика душности погоды. При расчете учитывается влияние влажности воздуха и скорости ветра на теплоощущения человека.
Tes - Эффективная температура на солнце - температура, которую ощущает человек, с поправкой на солнечный нагрев. Характеристика знойности погоды. Зависит от высоты солнца над горизонтом, облачности и скорости ветра. Ночью, в пасмурную погоду, а также при ветре 12 м/с и более поправка равна нулю.
P - Атмосферное давление - приведенное к уровню моря атмосферное давление.
Po - Атмосферное давление - измеренное на уровне метеостанции атмосферное давление.
Tmin - Минимальная температура - минимум температуры воздуха на высоте 2 м над землей.
Tmax - Максимальная температура - максимум температуры воздуха на высоте 2 м над землей.
R - Количество осадков - Количество выпавших осадков за период времени, мм. При наведении курсора мыши на число - период времени, за который выпало указанное количество осадков.
R24 - Количество осадков - Количество выпавших осадков за 24 часа, мм.
S - Снежный покров - Высота снежного покрова, см. При наведении курсора мыши на число - состояние снежного покрова и степень покрытия местности в баллах.